SEN001 KPHX-KLAX

Flight info

Callsign SEN001
Flight time 1h 0m
Altitude 38000
Route KEENS3 WLVRN ESTWD HLYWD1
Aircraft A20N/M-SDE2E3FGHIRWXY/LB1

Departure

Time 2026-05-05 01:10
Airport Phoenix Sky Harbor International Airport (KPHX)

Arrival

Time 2026-05-05 02:11
Airport Los Angeles International Airport (KLAX)
Time Latitude Longitude Altitude Speed Heading
2026-05-05 00:41 33.42528 -112.01803 1130 ft 0 kts 91°
2026-05-05 00:58 33.42528 -112.01799 1130 ft 0 kts 91°
2026-05-05 01:02 33.42529 -112.01789 1139 ft 4 kts 87°
2026-05-05 01:02 33.42530 -112.01772 1126 ft 6 kts 83°
2026-05-05 01:03 33.42557 -112.01742 1131 ft 8 kts 20°
2026-05-05 01:03 33.42630 -112.01740 1133 ft 13 kts 359°
2026-05-05 01:03 33.42731 -112.01743 1131 ft 12 kts
2026-05-05 01:03 33.42777 -112.01667 1130 ft 14 kts 89°
2026-05-05 01:04 33.42776 -112.01523 1130 ft 20 kts 90°
2026-05-05 01:04 33.42776 -112.01168 1131 ft 22 kts 90°
2026-05-05 01:04 33.42776 -112.00970 1130 ft 25 kts 89°
2026-05-05 01:05 33.42776 -112.00763 1130 ft 25 kts 90°
2026-05-05 01:05 33.42779 -112.00574 1130 ft 17 kts 77°
2026-05-05 01:05 33.42886 -112.00527 1132 ft 18 kts
2026-05-05 01:05 33.42981 -112.00422 1134 ft 21 kts 62°
2026-05-05 01:06 33.42995 -112.00234 1133 ft 25 kts 90°
2026-05-05 01:06 33.42993 -112.00007 1133 ft 28 kts 89°
2026-05-05 01:06 33.42997 -111.99761 1134 ft 28 kts 91°
2026-05-05 01:06 33.42995 -111.99568 1136 ft 16 kts 89°
2026-05-05 01:07 33.43019 -111.99513 1136 ft 11 kts 37°
2026-05-05 01:07 33.43040 -111.99496 1137 ft 12 kts 33°
2026-05-05 01:08 33.43050 -111.99489 1137 ft 0 kts 29°
2026-05-05 01:09 33.43052 -111.99489 1135 ft 1 kts 22°
2026-05-05 01:09 33.43087 -111.99504 1137 ft 10 kts 329°
2026-05-05 01:09 33.43103 -111.99546 1138 ft 2 kts 264°
2026-05-05 01:09 33.43103 -111.99553 1137 ft 1 kts 266°
2026-05-05 01:10 33.43104 -111.99948 1134 ft 91 kts 270°
2026-05-05 01:10 33.43105 -112.00987 1177 ft 151 kts 270°
2026-05-05 01:10 33.43109 -112.02259 1881 ft 153 kts 271°
2026-05-05 01:10 33.43142 -112.03544 2664 ft 155 kts 270°
2026-05-05 01:11 33.43163 -112.04910 3243 ft 173 kts 266°
2026-05-05 01:11 33.42990 -112.06406 3857 ft 198 kts 255°
2026-05-05 01:11 33.42588 -112.08105 4515 ft 225 kts 250°
2026-05-05 01:11 33.42036 -112.09960 5328 ft 247 kts 248°
2026-05-05 01:12 33.41386 -112.11952 6359 ft 263 kts 246°
2026-05-05 01:12 33.40727 -112.13963 7883 ft 257 kts 247°
2026-05-05 01:12 33.40099 -112.15988 9245 ft 262 kts 248°
2026-05-05 01:12 33.39518 -112.18080 10501 ft 271 kts 253°
2026-05-05 01:13 33.39241 -112.20412 11370 ft 297 kts 266°
2026-05-05 01:13 33.39460 -112.22977 12108 ft 323 kts 277°
2026-05-05 01:13 33.39889 -112.25651 13189 ft 330 kts 277°
2026-05-05 01:13 33.40318 -112.28356 14352 ft 332 kts 277°
2026-05-05 01:14 33.40739 -112.31087 15482 ft 335 kts 277°
2026-05-05 01:14 33.41154 -112.33842 16594 ft 338 kts 277°
2026-05-05 01:14 33.41568 -112.36632 17709 ft 342 kts 277°
2026-05-05 01:14 33.41983 -112.39450 18705 ft 345 kts 277°
2026-05-05 01:15 33.42403 -112.42297 19616 ft 349 kts 276°
2026-05-05 01:15 33.42832 -112.45181 20386 ft 353 kts 276°
2026-05-05 01:15 33.43257 -112.48052 20878 ft 357 kts 275°
2026-05-05 01:15 33.43692 -112.50992 21806 ft 359 kts 274°
2026-05-05 01:16 33.44130 -112.53945 22727 ft 362 kts 274°
2026-05-05 01:16 33.44570 -112.56929 23567 ft 366 kts 273°
2026-05-05 01:16 33.44953 -112.59949 24293 ft 367 kts 269°
2026-05-05 01:16 33.45084 -112.62998 25033 ft 366 kts 265°
2026-05-05 01:17 33.45113 -112.66064 25742 ft 370 kts 265°
2026-05-05 01:17 33.45148 -112.69151 26422 ft 373 kts 265°
2026-05-05 01:17 33.45189 -112.72275 27086 ft 376 kts 265°
2026-05-05 01:17 33.45249 -112.75423 27723 ft 381 kts 266°
2026-05-05 01:18 33.45535 -112.78611 28335 ft 390 kts 272°
2026-05-05 01:18 33.46127 -112.81819 28930 ft 399 kts 277°
2026-05-05 01:18 33.47032 -112.85003 29483 ft 409 kts 283°
2026-05-05 01:18 33.48140 -112.88125 30028 ft 414 kts 284°
2026-05-05 01:19 33.49280 -112.91349 30548 ft 415 kts 283°
2026-05-05 01:19 33.50385 -112.94493 31122 ft 415 kts 283°
2026-05-05 01:19 33.51515 -112.97714 31800 ft 412 kts 282°
2026-05-05 01:19 33.52607 -113.00830 32554 ft 407 kts 282°
2026-05-05 01:20 33.53695 -113.03936 33328 ft 402 kts 281°
2026-05-05 01:20 33.54771 -113.07017 34071 ft 397 kts 281°
2026-05-05 01:20 33.55828 -113.10052 34722 ft 392 kts 280°
2026-05-05 01:20 33.56872 -113.13053 35398 ft 386 kts 280°
2026-05-05 01:21 33.57900 -113.16009 36042 ft 381 kts 279°
2026-05-05 01:21 33.58915 -113.18931 36665 ft 377 kts 279°
2026-05-05 01:21 33.59918 -113.21823 37264 ft 373 kts 279°
2026-05-05 01:21 33.60897 -113.24652 37737 ft 370 kts 278°
2026-05-05 01:22 33.61879 -113.27488 37912 ft 367 kts 278°
2026-05-05 01:22 33.62855 -113.30319 37942 ft 366 kts 278°
2026-05-05 01:22 33.64803 -113.35980 37963 ft 367 kts 278°
2026-05-05 01:23 33.66760 -113.41661 37979 ft 368 kts 278°
2026-05-05 01:23 33.68718 -113.47351 37989 ft 369 kts 278°
2026-05-05 01:24 33.70677 -113.53055 37994 ft 370 kts 278°
2026-05-05 01:24 33.72627 -113.58742 37991 ft 371 kts 277°
2026-05-05 01:25 33.74592 -113.64478 37973 ft 371 kts 277°
2026-05-05 01:25 33.76553 -113.70215 37952 ft 371 kts 277°
2026-05-05 01:26 33.78511 -113.75955 37932 ft 372 kts 277°
2026-05-05 01:26 33.80148 -113.80760 37917 ft 373 kts 277°
2026-05-05 01:27 33.82118 -113.86551 37890 ft 375 kts 277°
2026-05-05 01:27 33.84097 -113.92373 37881 ft 375 kts 277°
2026-05-05 01:28 33.86074 -113.98199 37874 ft 376 kts 277°
2026-05-05 01:28 33.88037 -114.03993 37873 ft 376 kts 277°
2026-05-05 01:29 33.89956 -114.09833 37871 ft 370 kts 274°
2026-05-05 01:29 33.91273 -114.15713 37862 ft 358 kts 267°
2026-05-05 01:30 33.92259 -114.21600 37852 ft 359 kts 268°
2026-05-05 01:30 33.93264 -114.27504 37853 ft 359 kts 268°
2026-05-05 01:31 33.94265 -114.33411 37857 ft 360 kts 268°
2026-05-05 01:31 33.95263 -114.39330 37854 ft 361 kts 268°
2026-05-05 01:32 33.96259 -114.45255 37854 ft 361 kts 268°
2026-05-05 01:32 33.97254 -114.51191 37849 ft 361 kts 268°
2026-05-05 01:33 33.98241 -114.57095 37851 ft 362 kts 267°
2026-05-05 01:33 33.99232 -114.63047 37847 ft 362 kts 267°
2026-05-05 01:34 34.00223 -114.69017 37851 ft 363 kts 267°
2026-05-05 01:34 34.01212 -114.74989 37851 ft 364 kts 267°
2026-05-05 01:35 34.02199 -114.80967 37850 ft 364 kts 267°
2026-05-05 01:35 34.03183 -114.86952 37834 ft 364 kts 267°
2026-05-05 01:36 34.04167 -114.92949 37830 ft 364 kts 267°
2026-05-05 01:36 34.05159 -114.98956 37834 ft 366 kts 268°
2026-05-05 01:37 34.06159 -115.04979 37833 ft 367 kts 268°
2026-05-05 01:37 34.07137 -115.10978 37832 ft 367 kts 267°
2026-05-05 01:38 34.08114 -115.17017 37824 ft 367 kts 267°
2026-05-05 01:38 34.09090 -115.23077 37826 ft 369 kts 267°
2026-05-05 01:39 34.10068 -115.29153 37828 ft 368 kts 267°
2026-05-05 01:39 34.11040 -115.35205 37827 ft 367 kts 267°
2026-05-05 01:40 34.12007 -115.41268 37827 ft 368 kts 267°
2026-05-05 01:40 34.12974 -115.47340 37837 ft 369 kts 267°
2026-05-05 01:41 34.13937 -115.53408 37826 ft 370 kts 267°
2026-05-05 01:41 34.14906 -115.59516 37835 ft 370 kts 266°
2026-05-05 01:42 34.15750 -115.65607 37835 ft 364 kts 263°
2026-05-05 01:42 34.15964 -115.71597 37842 ft 354 kts 257°
2026-05-05 01:43 34.15565 -115.77465 37838 ft 348 kts 253°
2026-05-05 01:43 34.15001 -115.83272 37862 ft 349 kts 253°
2026-05-05 01:44 34.14440 -115.89090 37870 ft 349 kts 253°
2026-05-05 01:44 34.13873 -115.94920 37886 ft 350 kts 253°
2026-05-05 01:45 34.13302 -116.00748 37725 ft 349 kts 253°
2026-05-05 01:45 34.13018 -116.03655 37178 ft 349 kts 253°
2026-05-05 01:45 34.12732 -116.06574 36448 ft 350 kts 253°
2026-05-05 01:46 34.12445 -116.09492 35639 ft 351 kts 253°
2026-05-05 01:46 34.12154 -116.12431 34824 ft 354 kts 253°
2026-05-05 01:46 34.11866 -116.15346 34062 ft 355 kts 253°
2026-05-05 01:46 34.11572 -116.18308 33157 ft 356 kts 253°
2026-05-05 01:47 34.11277 -116.21266 32185 ft 357 kts 254°
2026-05-05 01:47 34.10971 -116.24270 31054 ft 363 kts 254°
2026-05-05 01:47 34.10646 -116.27316 30037 ft 367 kts 254°
2026-05-05 01:47 34.10323 -116.30378 29037 ft 367 kts 255°
2026-05-05 01:48 34.10000 -116.33420 28173 ft 365 kts 255°
2026-05-05 01:48 34.09674 -116.36441 27415 ft 360 kts 256°
2026-05-05 01:48 34.09350 -116.39434 26558 ft 358 kts 256°
2026-05-05 01:48 34.09029 -116.42411 25711 ft 357 kts 257°
2026-05-05 01:49 34.08717 -116.45329 25182 ft 353 kts 257°
2026-05-05 01:49 34.08402 -116.48282 24982 ft 357 kts 257°
2026-05-05 01:49 34.08091 -116.51210 24902 ft 346 kts 257°
2026-05-05 01:49 34.07791 -116.54065 24900 ft 342 kts 257°
2026-05-05 01:50 34.07483 -116.56931 24901 ft 346 kts 257°
2026-05-05 01:50 34.07174 -116.59809 24906 ft 346 kts 258°
2026-05-05 01:50 34.06899 -116.62690 24912 ft 346 kts 258°
2026-05-05 01:50 34.06642 -116.65586 24911 ft 347 kts 258°
2026-05-05 01:51 34.06385 -116.68478 24915 ft 348 kts 258°
2026-05-05 01:51 34.06123 -116.71384 24920 ft 348 kts 258°
2026-05-05 01:51 34.05860 -116.74255 24927 ft 348 kts 258°
2026-05-05 01:51 34.05590 -116.77196 24928 ft 348 kts 258°
2026-05-05 01:52 34.05325 -116.80057 24936 ft 348 kts 258°
2026-05-05 01:52 34.05054 -116.82954 24872 ft 346 kts 258°
2026-05-05 01:52 34.04779 -116.85865 24465 ft 344 kts 258°
2026-05-05 01:52 34.04509 -116.88701 23870 ft 345 kts 259°
2026-05-05 01:53 34.04198 -116.91570 23173 ft 343 kts 258°
2026-05-05 01:53 34.03826 -116.94403 22490 ft 340 kts 257°
2026-05-05 01:53 34.03442 -116.97218 21950 ft 342 kts 257°
2026-05-05 01:53 34.03057 -117.00058 21445 ft 343 kts 257°
2026-05-05 01:54 34.02678 -117.02901 20959 ft 343 kts 257°
2026-05-05 01:54 34.02319 -117.05736 20455 ft 342 kts 258°
2026-05-05 01:54 34.01985 -117.08577 19983 ft 342 kts 259°
2026-05-05 01:54 34.01656 -117.11414 19507 ft 342 kts 259°
2026-05-05 01:55 34.01326 -117.14255 19042 ft 342 kts 259°
2026-05-05 01:55 34.00993 -117.17095 18580 ft 342 kts 259°
2026-05-05 01:55 34.00657 -117.19927 18089 ft 341 kts 259°
2026-05-05 01:55 34.00322 -117.22743 17566 ft 337 kts 259°
2026-05-05 01:56 33.99989 -117.25535 17033 ft 336 kts 259°
2026-05-05 01:56 33.99656 -117.28318 16532 ft 335 kts 259°
2026-05-05 01:56 33.99325 -117.31077 15999 ft 330 kts 259°
2026-05-05 01:56 33.99000 -117.33819 15533 ft 330 kts 259°
2026-05-05 01:57 33.98681 -117.36539 15050 ft 327 kts 259°
2026-05-05 01:57 33.98368 -117.39218 14575 ft 327 kts 259°
2026-05-05 01:57 33.98050 -117.41925 14102 ft 325 kts 260°
2026-05-05 01:57 33.97735 -117.44603 13613 ft 321 kts 260°
2026-05-05 01:58 33.97469 -117.47257 13082 ft 317 kts 264°
2026-05-05 01:58 33.97509 -117.49896 12629 ft 313 kts 273°
2026-05-05 01:58 33.97867 -117.52446 12315 ft 307 kts 280°
2026-05-05 01:58 33.98331 -117.54967 12016 ft 309 kts 280°
2026-05-05 01:59 33.98780 -117.57485 11725 ft 305 kts 279°
2026-05-05 01:59 33.99219 -117.59972 11427 ft 303 kts 279°
2026-05-05 01:59 33.99647 -117.62454 11130 ft 301 kts 279°
2026-05-05 01:59 34.00074 -117.64907 10842 ft 296 kts 279°
2026-05-05 02:00 34.00453 -117.67309 10549 ft 287 kts 275°
2026-05-05 02:00 34.00526 -117.69669 10262 ft 277 kts 266°
2026-05-05 02:00 34.00320 -117.71941 10056 ft 266 kts 262°
2026-05-05 02:00 34.00095 -117.74166 9995 ft 269 kts 262°
2026-05-05 02:01 33.99879 -117.76391 9984 ft 268 kts 262°
2026-05-05 02:01 33.99663 -117.78639 9987 ft 270 kts 262°
2026-05-05 02:01 33.99446 -117.80873 9891 ft 266 kts 262°
2026-05-05 02:01 33.99225 -117.83084 9491 ft 266 kts 261°
2026-05-05 02:02 33.98900 -117.85278 9025 ft 265 kts 258°
2026-05-05 02:02 33.98476 -117.87411 8536 ft 265 kts 254°
2026-05-05 02:02 33.98218 -117.89581 8053 ft 263 kts 271°
2026-05-05 02:02 33.98305 -117.91780 7565 ft 263 kts 270°
2026-05-05 02:03 33.98232 -117.93978 7094 ft 262 kts 265°
2026-05-05 02:03 33.98032 -117.96146 6691 ft 259 kts 263°
2026-05-05 02:03 33.97811 -117.98299 6247 ft 259 kts 263°
2026-05-05 02:03 33.97597 -118.00399 6170 ft 245 kts 263°
2026-05-05 02:04 33.97382 -118.02515 6075 ft 263 kts 263°
2026-05-05 02:04 33.97157 -118.04717 5746 ft 266 kts 263°
2026-05-05 02:04 33.96934 -118.06904 5444 ft 260 kts 263°
2026-05-05 02:04 33.96717 -118.09038 5124 ft 253 kts 263°
2026-05-05 02:05 33.96507 -118.11095 4821 ft 240 kts 262°
2026-05-05 02:05 33.96308 -118.13040 4509 ft 229 kts 263°
2026-05-05 02:05 33.96119 -118.14902 4200 ft 219 kts 262°
2026-05-05 02:05 33.95936 -118.16691 3899 ft 209 kts 262°
2026-05-05 02:06 33.95763 -118.18395 3579 ft 202 kts 262°
2026-05-05 02:06 33.95596 -118.20037 3207 ft 198 kts 262°
2026-05-05 02:06 33.95429 -118.21670 2830 ft 195 kts 262°
2026-05-05 02:06 33.95268 -118.23248 2671 ft 183 kts 262°
2026-05-05 02:07 33.95118 -118.24717 2578 ft 171 kts 262°
2026-05-05 02:07 33.94980 -118.26070 2552 ft 151 kts 262°
2026-05-05 02:07 33.94861 -118.27245 2438 ft 133 kts 262°
2026-05-05 02:07 33.94751 -118.28316 2279 ft 125 kts 262°
2026-05-05 02:08 33.94646 -118.29344 2017 ft 122 kts 262°
2026-05-05 02:08 33.94543 -118.30359 1750 ft 123 kts 262°
2026-05-05 02:08 33.94443 -118.31382 1487 ft 121 kts 262°
2026-05-05 02:08 33.94352 -118.32376 1262 ft 114 kts 260°
2026-05-05 02:09 33.94277 -118.33271 1075 ft 106 kts 258°
2026-05-05 02:09 33.94175 -118.34183 935 ft 114 kts 260°
2026-05-05 02:09 33.94074 -118.35150 734 ft 117 kts 262°
2026-05-05 02:09 33.93976 -118.36088 540 ft 108 kts 262°
2026-05-05 02:10 33.93880 -118.36961 380 ft 106 kts 262°
2026-05-05 02:10 33.93787 -118.37870 233 ft 112 kts 260°
2026-05-05 02:10 33.93690 -118.38788 128 ft 106 kts 258°
2026-05-05 02:10 33.93615 -118.39444 125 ft 50 kts 262°
2026-05-05 02:11 33.93573 -118.39829 124 ft 43 kts 265°
2026-05-05 02:11 33.93528 -118.40112 125 ft 25 kts 248°
2026-05-05 02:11 33.93467 -118.40202 121 ft 10 kts 192°
2026-05-05 02:11 33.93441 -118.40193 123 ft 0 kts 149°
2026-05-05 02:12 33.93434 -118.40187 124 ft 5 kts 144°
2026-05-05 02:13 33.93424 -118.40159 122 ft 0 kts 96°
2026-05-05 02:13 33.93428 -118.40103 124 ft 16 kts 80°
2026-05-05 02:13 33.93431 -118.40054 125 ft 12 kts 85°
2026-05-05 02:14 33.93443 -118.39908 125 ft 19 kts 78°
2026-05-05 02:14 33.93434 -118.39805 122 ft 5 kts 154°
2026-05-05 02:14 33.93403 -118.39812 123 ft 7 kts 193°
2026-05-05 02:14 33.93373 -118.39873 124 ft 11 kts 251°
2026-05-05 02:15 33.93310 -118.39891 123 ft 7 kts 171°
2026-05-05 02:15 33.93300 -118.39890 123 ft 0 kts 172°